Location: Central Coast NSW, Australia
(33.2407°S, 151.4316°E)
Time: 15:30:01
(UTC+10:00)

Tiangong 2 - Visible Passes

Search period start: 25 May 2018 00:00
Search period end: 04 June 2018 00:00
Orbit: 382 x 385 km, 42.8° (Epoch: 24 May)

Date Brightness Start Highest point End Pass type
(mag) Time Alt. Az. Time Alt. Az. Time Alt. Az.
25 May 2.6 06:14:01 10° NW 06:17:03 40° NE 06:20:06 10° ESE visible
26 May 3.7 05:14:59 10° N 05:17:23 20° NE 05:19:49 10° E visible
27 May 1.1 05:50:53 10° WNW 05:54:06 85° NE 05:57:19 10° ESE visible
28 May 2.4 04:54:36 38° NE 04:54:36 38° NE 04:57:22 10° ESE visible
29 May 1.3 05:30:31 41° WSW 05:31:11 50° SSW 05:34:20 10° SE visible
30 May 4.1 04:33:59 14° ESE 04:33:59 14° ESE 04:34:34 10° ESE visible
30 May 2.7 06:06:13 12° WSW 06:08:21 21° SSW 06:10:55 10° SE visible
31 May 2.9 05:09:30 23° SSE 05:09:30 23° SSE 05:11:15 10° SE visible
01 Jun 3.0 05:44:54 16° SSW 05:45:37 17° S 05:47:50 10° SE visible
02 Jun 4.2 04:47:59 11° SE 04:47:59 11° SE 04:48:07 10° SE visible
02 Jun 3.3 06:21:03 10° SW 06:23:01 15° S 06:24:59 10° SE visible
03 Jun 3.4 05:23:12 15° S 05:23:12 15° S 05:24:52 10° SE visible
